Regional Weather Roundup
Issued by NWS

Home | Current Version | Previous Version | Text Only | Print | Product List | Glossary On
Versions: 1 2 3 4 5 6 7 8 9 10 11 12 13 14 15 16 17 18 19 20 21 22 23 24 25 26 27 28 29 30 31 32 33 34 35 36 37 38 39 40 41 42 43 44 45 46 47 48 49 50
000
ASUS45 KPSR 201110
RWRAZ

ARIZONA REGIONAL HOURLY WEATHER ROUNDUP
NATIONAL WEATHER SERVICE PHOENIX AZ
400 AM MST WED AUG 20 2014

NOTE: FAIR INDICATES FEW OR NO CLOUDS BELOW 12,000 FEET WITH NO
SIGNIFICANT WEATHER AND/OR OBSTRUCTIONS TO VISIBILITY.

AZZ001>003-036-201200-
NORTHWEST ARIZONA

CITY           SKY/WX    TMP DP  RH WIND       PRES   REMARKS
BULLHEAD CITY  PTCLDY    75  66  73 CALM      29.81R
KINGMAN        CLEAR     61  56  83 S6        29.96R
$$

AZZ004>008-015-016-018-201200-
NORTH CENTRAL ARIZONA

CITY           SKY/WX    TMP DP  RH WIND       PRES   REMARKS
GRAND CANYON     N/A    N/A N/A N/A MISG        N/A
WILLIAMS       MOCLDY    57  52  82 SW13G22   30.24R
PRESCOTT       CLEAR     54  51  90 CALM      30.11R
FLAGSTAFF      PTCLDY    48  46  93 CALM      30.22R
PAYSON         PTCLDY    61  59  94 CALM      30.14R
PAGE           PTCLDY    66  59  78 S6        30.01R
$$

AZZ009>014-017-201200-
NORTHEAST ARIZONA

CITY           SKY/WX    TMP DP  RH WIND       PRES   REMARKS
WINSLOW        MOCLDY    61  58  90 SE5       30.08R
SAINT JOHNS    CLEAR     58  49  72 SW7       30.12R
SHOW LOW       CLOUDY    54  48  82 S10       30.19S
$$

AZZ023-201200-
GREATER PHOENIX AREA

CITY           SKY/WX    TMP DP  RH WIND       PRES   REMARKS
PHOENIX        PTCLDY    76  68  76 E8        29.86R
BUCKEYE          N/A     75  64  69 NE5       29.86S
LUKE AFB       NOT AVBL
DEER VALLEY    CLEAR     74  65  73 CALM      29.89R
SCOTTSDALE     CLEAR     74  67  78 CALM      29.90R
MESA-GATEWAY   PTCLDY    75  64  69 E6        29.90S
$$

AZZ027-028-201200-
SOUTHWEST MARICOPA COUNTY AND PINAL COUNTY

CITY           SKY/WX    TMP DP  RH WIND       PRES   REMARKS
CASA GRANDE    PTCLDY    73  64  73 CALM      29.89S
$$

AZZ503-504-507>509-201200-
SOUTHEAST ARIZONA

CITY           SKY/WX    TMP DP  RH WIND       PRES   REMARKS
TUCSON         CLEAR     72  63  73 SE9       29.98S
DAVIS-MONTHAN  CLEAR     69  64  83 E5        29.97S
NOGALES        CLEAR     62  59  90 CALM      30.06S
SIERRA VISTA   PTCLDY    63  61  94 SE3       30.09S
DOUGLAS        CLOUDY    63  61  93 SE6       30.07S
SAFFORD        MOCLDY    66  64  93 CALM      29.99R
$$

AZZ020-021-025-026-031-201200-
SOUTHWEST ARIZONA

CITY           SKY/WX    TMP DP  RH WIND       PRES   REMARKS
YUMA           CLEAR     85  68  56 S5        29.77R
$$

CAZ031-033-041-043-047-048-061-201200-
SOUTHERN CALIFORNIA

CITY           SKY/WX    TMP DP  RH WIND       PRES   REMARKS
DOWNTOWN L.A.  CLOUDY    69  59  70 VRB3      29.90R
SAN DIEGO      CLOUDY    70  59  68 S3        29.90S
BURBANK        CLOUDY    68  58  70 SE7       29.90R
ONTARIO        PTCLDY    65  59  81 W3        29.91S
RIVERSIDE      PTCLDY    65  59  81 CALM      29.92R
PALM SPRINGS   CLOUDY    79  52  38 S5        29.79R
EL CENTRO NAS  MOCLDY    84  31  14 W10       29.74R
IMPERIAL       MOCLDY    83  33  16 NW7       29.74S
BLYTHE         PTCLDY    81  53  37 S8        29.77R
NEEDLES        CLEAR     81  62  52 NW3       29.80R
$$

NVZ020-UTZ003-201200-
SOUTHERN NEVADA-UTAH

CITY           SKY/WX    TMP DP  RH WIND       PRES   REMARKS
LAS VEGAS      PTCLDY    78  55  44 S3        29.83R
SALT LAKE CITY CLOUDY    62  58  86 SE14      29.95R
$$

NMZ009-TXZ055-201200-
NEW MEXICO-WEST TEXAS

CITY           SKY/WX    TMP DP  RH WIND       PRES   REMARKS
ALBUQUERQUE    CLOUDY    68  52  56 W3        30.05S
EL PASO        PTCLDY    72  56  57 W14       29.98R
$$


........................KEY........................
SKY/WX - SKY CONDITION/WEATHER
TMP    - TEMPERATURE IN FAHRENHEIT
DP     - DEW POINT IN FAHRENHEIT
RH     - RELATIVE HUMIDITY IN PERCENT
WIND   - DIRECTION AND SPEED IN MILES PER HOUR (MPH)
VRB    - VARIABLE WIND DIRECTION
PRES   - MEAN SEA LEVEL PRESSURE IN INCHES OF MERCURY
         F - FALLING PRESSURE   R - RISING PRESSURE
         S - STEADY PRESSURE
VSB    - VISIBILITY IN MILES
HX     - HEAT INDEX IN FAHRENHEIT
WCI    - WIND CHILL INDEX IN FAHRENHEIT
TC     - TEMPERATURE IN CELSIUS WHICH IS ALSO KNOWN AS
         TEMPERATURE IN CENTIGRADE
AFB    - AIR FORCE BASE
         LUKE AFB IS LUKE AIR FORCE BASE
         DAVIS-MONTHAN IS DAVIS-MONTHAN AIR FORCE BASE
NAS    - NAVAL AIR STATION
         EL CENTRO NAS IS EL CENTRO NAVAL AIR STATION
N/A    - NOT AVAILABLE



USA.gov is the U.S. government's official web portal to all federal, state and local government web resources and services.